Satellite: FCAL
Catalog number: 29667
Epoch time:      08059.78746470
Element set:     788
Inclination:      051.6302 deg
RA of node:       176.8300 deg
Eccentricity:    0.0007738
Arg of perigee:   286.7615 deg
Mean anomaly:     073.2583 deg
Mean motion:   16.03141871 rev/day
Decay rate:     5.1917e-04 rev/day^2
Epoch rev:            6893
Checksum:              336

Satellite: FALCON
Catalog number: 30776
Epoch time:      08058.57048311
Element set:    0270
Inclination:      035.4329 deg
RA of node:       104.3138 deg
Eccentricity:    0.0000352
Arg of perigee:   103.4123 deg
Mean anomaly:     256.6632 deg
Mean motion:   15.02890449 rev/day
Decay rate:       3.77e-06 rev/day^2
Epoch rev:           05349
Checksum:              271

Satellite: MAST
Catalog number: 31126
Epoch time:      08059.22814163
Element set:     266
Inclination:      098.0491 deg
RA of node:       127.9986 deg
Eccentricity:    0.0094108
Arg of perigee:   313.1861 deg
Mean anomaly:     046.1514 deg
Mean motion:   14.53402045 rev/day
Decay rate:        6.6e-07 rev/day^2
Epoch rev:            4604
Checksum:              279

Satellite: CAPE1
Catalog number: 31130
Epoch time:      08059.75735045
Element set:     246
Inclination:      098.0504 deg
RA of node:       127.7677 deg
Eccentricity:    0.0101901
Arg of perigee:   313.6205 deg
Mean anomaly:     045.6570 deg
Mean motion:   14.51934252 rev/day
Decay rate:        4.9e-07 rev/day^2
Epoch rev:            4584
Checksum:              281

/EX





More information about the Keps mailing list